This is the latest recevied weather packets stored in our database for station/object NE1CU. If no packets are shown the sender has not sent any weather packets the latest 10 day(s).
| Time | Temp. | Humidity | Pressure | Rain* | Wind** | Luminosity | Snow |
|---|---|---|---|---|---|---|---|
| 1777589815 | 12.78° C | 90% | 1007.1 hPa | 0 mm | - | 28 W/m² | - |
| 1777589515 | 12.78° C | 90% | 1007.1 hPa | 0 mm | - | 28 W/m² | - |
| 1777589215 | 13.33° C | 90% | 1007.1 hPa | 0 mm | - | 26 W/m² | - |
| 1777588911 | 12.78° C | 90% | 1007.2 hPa | 0 mm | - | 32 W/m² | - |
| 1777588607 | 12.78° C | 90% | 1007.1 hPa | 0 mm | - | 62 W/m² | - |
| 1777588302 | 12.78° C | 90% | 1007 hPa | 0 mm | - | 80 W/m² | - |
| 1777587999 | 12.78° C | 91% | 1007 hPa | 0 mm | - | 86 W/m² | - |
| 1777587695 | 12.78° C | 90% | 1006.9 hPa | 0 mm | - | 67 W/m² | - |
| 1777587395 | 12.78° C | 90% | 1007.1 hPa | 0 mm | - | 69 W/m² | - |
| 1777587091 | 12.22° C | 90% | 1007.1 hPa | 0 mm | - | 85 W/m² | - |
| 1777586787 | 12.78° C | 88% | 1006.9 hPa | 1.27 mm | - | 24 W/m² | - |
| 1777586482 | 12.78° C | 87% | 1006.9 hPa | 1.27 mm | - | 69 W/m² | - |
| 1777586178 | 12.78° C | 85% | 1006.8 hPa | 0 mm | - | 48 W/m² | - |
| 1777585876 | 12.78° C | 82% | 1006.7 hPa | 0 mm | - | 67 W/m² | - |
| 1777585570 | 13.33° C | 80% | 1006.7 hPa | 0 mm | - | 93 W/m² | - |
| 1777585267 | 13.33° C | 80% | 1006.6 hPa | 0 mm | - | 85 W/m² | - |
| 1777584961 | 13.33° C | 79% | 1006.7 hPa | 0 mm | - | 66 W/m² | - |
| 1777584658 | 13.33° C | 78% | 1006.6 hPa | 0 mm | - | 55 W/m² | - |
| 1777584356 | 13.89° C | 78% | 1006.5 hPa | 0 mm | - | 59 W/m² | - |
| 1777584052 | 13.89° C | 77% | 1006.5 hPa | 0 mm | - | 144 W/m² | - |
| 1777583752 | 14.44° C | 77% | 1006.2 hPa | 0 mm | - | 182 W/m² | - |
| 1777583451 | 14.44° C | 77% | 1006.4 hPa | 0 mm | - | 172 W/m² | - |
| 1777583151 | 14.44° C | 75% | 1006.2 hPa | 0 mm | - | 143 W/m² | - |
| 1777582847 | 14.44° C | 76% | 1006.1 hPa | 0 mm | - | 233 W/m² | - |
| 1777582544 | 15° C | 75% | 1006 hPa | 0 mm | - | 393 W/m² | - |
* Rain latest hour (hover to see other rain measurements)
** Current wind speed in m/s (hover to see current wind gust speed)